[[{"header":{"parameterUnit":"m.s-1","parameterCategory":1,"la1":30.2991,"la2":30.254,"lo1":-89.0895,"lo2":-89.0444,"dy":0.0017,"dx":0.0017,"nx":28,"ny":28,"refTime":"2024-05-12T21:00:00:Z","depth":0,"parameterNumber":2,"parameterNumberName":"U-component_of_WINDS"},"data":[0,0,0,0,0,0,0,0,0,0,0,0,0,0,0,0,0,0,0,0,0,0,0,0,0,0,0,0,0,0,0,0,0,0,0,0,0,0,0,0,0,0,0,0,0,0,0,0,0,0,0,0,0,0,0,0,0,0,-7.1862,-7.1862,0,-7.1887,-7.1887,-7.1888,-7.1759,-7.1755,-7.1752,-7.1748,-7.177,-7.1774,-7.1778,0,0,0,0,0,0,0,0,0,0,0,0,0,-7.1699,-7.1702,-7.1862,-7.1862,-7.1863,-7.1887,-7.1887,-7.1888,-7.176,-7.1755,-7.1751,-7.1746,-7.1769,-7.1773,-7.1778,0,0,0,0,0,0,0,0,0,0,0,0,0,-7.1751,-7.1704,-7.1862,-7.1802,-7.1796,-7.1887,-7.1887,-7.1888,-7.1761,-7.1755,-7.1749,-7.1744,-7.1767,-7.1773,-7.1779,-7.1927,0,0,-7.1797,-7.18,0,0,0,0,0,0,0,0,-7.1749,-7.1757,-7.181,-7.1806,-7.18,-7.1814,-7.1838,-7.1901,-7.1762,-7.1774,-7.1748,-7.1741,-7.1789,-7.1793,-7.181,-7.1928,-7.1929,-7.1798,-7.1802,-7.1804,-7.1806,0,0,0,0,0,0,0,-7.1745,-7.1756,-7.1872,-7.1811,-7.1805,-7.1772,-7.1773,-7.1849,-7.1812,-7.1773,-7.1763,-7.1768,-7.1785,-7.1804,-7.1809,-7.193,-7.1798,-7.1803,-7.1807,-7.1809,-7.2169,-7.2175,0,0,0,0,0,0,-7.175,-7.1753,-7.1871,-7.1872,-7.176,-7.178,-7.1781,-7.1815,-7.1811,-7.1805,-7.1773,-7.1762,-7.1797,-7.1802,-7.181,-7.198,-7.1804,-7.181,-7.1813,-7.2163,-7.217,-7.2177,0,0,0,0,0,0,-7.1747,-7.1762,-7.187,-7.181,-7.1822,-7.1788,-7.1828,-7.1819,-7.1837,-7.1811,-7.1804,-7.1799,-7.1792,-7.1801,-7.1899,-7.1979,-7.1813,-7.1818,-7.2156,-7.2165,-7.2173,-7.2324,0,0,0,0,0,0,-7.1743,-7.1761,-7.1818,-7.1813,-7.1825,-7.196,-7.1833,-7.1823,-7.1849,-7.1835,-7.1834,-7.1829,-7.1789,-7.189,-7.1905,-7.1984,-7.1823,-7.2149,-7.216,-7.2171,-7.2312,-7.2337,-7.2359,0,0,0,0,0,-7.1737,-7.1859,-7.1822,-7.1836,-7.1896,-7.1965,-7.1972,-7.1925,-7.1856,-7.1911,-7.1895,-7.1829,-7.1969,-7.1902,-7.1917,-7.1999,-7.2143,-7.2157,-7.217,-7.2301,-7.2332,-7.2358,0,0,0,0,0,0,-7.1873,-7.1857,-7.1815,-7.1939,-7.1955,-7.1943,-7.2012,-7.1959,-7.1993,-7.1978,-7.1918,-7.1919,-7.2026,-7.2023,-7.1948,-7.2142,-7.2044,-7.2061,-7.2139,-7.2168,-7.2191,-7.2187,-7.1828,0,0,0,0,0,-7.1918,-7.1977,-7.1959,-7.207,-7.208,-7.2046,-7.2074,-7.2036,-7.2049,-7.2054,-7.2044,-7.2058,-7.2105,-7.2137,-7.2179,-7.2313,-7.2309,-7.2377,-7.2401,-7.242,-7.2434,-7.2501,-7.253,-7.222,-7.222,-7.222,0,0,-7.201,-7.2009,-7.2049,-7.2097,-7.2105,-7.2165,-7.2051,-7.212,-7.2163,-7.2064,-7.2154,-7.2149,-7.216,-7.2276,-7.2326,-7.2277,-7.2519,-7.2437,-7.2453,-7.2456,-7.2518,-7.2547,-7.2573,-7.2229,-7.2228,-7.2226,0,0,-7.2207,-7.2214,-7.2305,-7.2316,-7.2329,-7.2305,-7.2328,-7.2325,-7.2317,-7.2408,-7.2334,-7.2385,-7.2468,-7.2478,-7.2495,-7.2699,-7.2637,-7.2714,-7.2835,-7.2902,-7.2926,-7.2947,-7.3016,-7.3042,-7.2729,-7.273,-7.273,0,-7.2318,-7.2407,-7.2359,-7.2433,-7.2455,-7.2371,-7.2461,-7.2474,-7.25,-7.2516,-7.2462,-7.2563,-7.2565,-7.268,-7.273,-7.2748,-7.2769,-7.2711,-7.2927,-7.2947,-7.2966,-7.3031,-7.3058,-7.2739,-7.2738,-7.2737,-7.2736,0,-7.2542,-7.2606,-7.2678,-7.2706,-7.2737,-7.282,-7.2782,-7.282,-7.2781,-7.2763,-7.2856,-7.2856,-7.2895,-7.2921,-7.2883,-7.3031,-7.2999,-7.2938,-7.2837,-7.3006,-7.3065,-7.309,-7.2751,-7.2748,-7.2745,-7.2743,0,0,-7.2821,-7.2823,-7.285,-7.2861,-7.2871,-7.2917,-7.2996,-7.3036,-7.3068,-7.309,-7.3152,-7.3225,-7.3167,-7.3186,-7.3149,-7.3209,-7.3366,-7.3138,-7.3137,-7.3177,-7.3524,-7.3568,-7.3597,-7.3328,-7.3333,-7.3336,-7.3522,0,-7.3011,-7.3145,-7.3104,-7.3238,-7.3294,-7.3216,-7.3284,-7.3297,-7.3283,-7.3327,-7.3312,-7.3363,-7.3285,-7.3295,-7.3351,-7.3335,-7.3434,-7.3322,-7.3381,-7.3384,-7.3376,-7.3629,-7.3675,-7.385,-7.3545,-7.3549,-7.3552,0,-7.3249,-7.3281,-7.3421,-7.342,-7.3442,-7.3504,-7.3536,-7.3582,-7.3594,-7.358,-7.3602,-7.3553,-7.3628,-7.3533,-7.3634,-7.3558,-7.3581,-7.3578,-7.3583,-7.3582,-7.3475,-7.3631,-7.3905,-7.393,-7.3589,-7.3586,-7.3584,0,-7.3432,-7.3511,-7.3604,-7.3617,-7.362,-7.3665,-7.3668,-7.3675,-7.3701,-7.3731,-7.3746,-7.3785,-7.3804,-7.3834,-7.3796,-7.373,-7.3902,-7.3803,-7.3889,-7.389,-7.3924,-7.3921,-7.4201,-7.3948,-7.3947,-7.3947,-7.3946,0,-7.3645,-7.3733,-7.3687,-7.3744,-7.3839,-7.3792,-7.3888,-7.3882,-7.389,-7.3942,-7.3879,-7.393,-7.3879,-7.3926,-7.3897,-7.3983,-7.3994,-7.3982,-7.3972,-7.3985,-7.3986,-7.3995,-7.398,-7.3954,-7.3952,-7.3951,-7.395,0,-7.3864,-7.3838,-7.3933,-7.3929,-7.393,-7.4,-7.3995,-7.4047,-7.403,-7.4098,-7.4111,-7.4084,-7.4135,-7.4102,-7.4154,-7.4134,-7.4246,-7.4222,-7.4241,-7.4233,-7.4319,-7.4309,-7.461,-7.4645,-7.4374,-7.4377,-7.4379,0,-7.3999,-7.4065,-7.4068,-7.41,-7.4107,-7.4159,-7.4186,-7.4144,-7.4174,-7.4194,-7.4242,-7.4289,-7.4322,-7.4408,-7.4391,-7.443,-7.4403,-7.4506,-7.4408,-7.4418,-7.4399,-7.4394,-7.4398,-7.4524,-7.4527,-7.453,-7.4532,0,-7.424,-7.4224,-7.4266,-7.4304,-7.4338,-7.4366,-7.4388,-7.4417,-7.4374,-7.4411,-7.4463,-7.449,-7.4543,-7.4588,-7.4621,-7.4622,-7.4569,-7.4564,-7.4585,-7.4595,-7.4602,-7.4595,-7.429,-7.4556,-7.4553,-7.4552,-7.455,-7.4549,-7.4418,-7.4472,-7.4482,-7.4531,-7.4544,-7.4566,-7.4613,-7.4603,-7.4646,-7.4686,-7.4659,-7.472,-7.473,-7.4769,-7.4777,-7.4823,-7.4781,-7.4813,-7.482,-7.4827,-7.4837,-7.46,-7.483,-7.4829,-7.4828,-7.4828,-7.4827,0,-7.4651,-7.4655,-7.4701,-7.4734,-7.4772,-7.4723,-7.4744,-7.4779,-7.4833,-7.4849,-7.4884,-7.4943,-7.4987,-7.4976,-7.5015,-7.5054,-7.503,-7.5065,-7.5059,-7.5059,-7.4874,-7.485,-7.5083,-7.5083,-7.5083,-7.5083,-7.5083,-7.5083,-7.4777,-7.4864,-7.485,-7.4943,-7.4946,-7.5005,-7.5022,-7.5041,-7.5053,-7.5122,-7.5159,-7.5152,-7.5156,-7.5195,-7.5233,-7.5228,-7.5243,-7.5286,-7.5273,-7.5098,-7.5073,-7.5049,-7.5025,-7.5291,-7.5292,-7.5453,-7.5454,-7.5456]},{"header":{"parameterUnit":"m.s-1","parameterCategory":1,"la1":30.2991,"la2":30.254,"lo1":-89.0895,"lo2":-89.0444,"dy":0.0017,"dx":0.0017,"nx":28,"ny":28,"refTime":"2024-05-12T21:00:00:Z","depth":0,"parameterNumber":3,"parameterNumberName":"V-component_of_WINDS"},"data":[0,0,0,0,0,0,0,0,0,0,0,0,0,0,0,0,0,0,0,0,0,0,0,0,0,0,0,0,0,0,0,0,0,0,0,0,0,0,0,0,0,0,0,0,0,0,0,0,0,0,0,0,0,0,0,0,0,0,3.2999,3.2999,0,3.3019,3.3019,3.3019,3.2966,3.2964,3.2963,3.2961,3.2979,3.2981,3.2983,0,0,0,0,0,0,0,0,0,0,0,0,0,3.2916,3.2918,3.2999,3.2999,3.3,3.3019,3.3019,3.3019,3.2966,3.2964,3.2962,3.2961,3.2978,3.2981,3.2983,0,0,0,0,0,0,0,0,0,0,0,0,0,3.2945,3.2918,3.2999,3.2976,3.2974,3.3018,3.3019,3.3019,3.2967,3.2964,3.2962,3.296,3.2978,3.298,3.2983,3.3051,0,0,3.2993,3.2994,0,0,0,0,0,0,0,0,3.2944,3.2948,3.2979,3.2977,3.2975,3.2987,3.2996,3.303,3.2967,3.2969,3.2961,3.2958,3.2984,3.2986,3.2995,3.3052,3.3052,3.2993,3.2995,3.2996,3.2997,0,0,0,0,0,0,0,3.2942,3.2947,3.3007,3.2979,3.2977,3.2964,3.2965,3.3002,3.299,3.2969,3.2965,3.2968,3.2982,3.2992,3.2995,3.3053,3.2993,3.2995,3.2997,3.2998,3.3167,3.3169,0,0,0,0,0,0,3.2943,3.2946,3.3006,3.3007,3.2953,3.2968,3.2969,3.2986,3.2989,3.2988,3.2971,3.2966,3.2988,3.2992,3.2995,3.3075,3.2996,3.2999,3.3,3.3164,3.3167,3.317,0,0,0,0,0,0,3.2941,3.2949,3.3005,3.2976,3.2982,3.2972,3.2991,3.2988,3.2998,3.2991,3.2988,3.2983,3.2986,3.2991,3.3038,3.3075,3.3,3.3003,3.3161,3.3165,3.3169,3.3234,0,0,0,0,0,0,3.2939,3.2949,3.2974,3.2977,3.2984,3.3048,3.2993,3.299,3.3003,3.2997,3.3002,3.3,3.2985,3.3034,3.3041,3.3077,3.3005,3.3158,3.3163,3.3168,3.3229,3.324,3.325,0,0,0,0,0,3.2936,3.2991,3.2976,3.2983,3.3016,3.305,3.3054,3.3036,3.3006,3.3032,3.3028,3.3,3.307,3.3039,3.3046,3.3085,3.3155,3.3161,3.3167,3.3224,3.3238,3.325,0,0,0,0,0,0,3.2992,3.2991,3.2974,3.3031,3.3041,3.3041,3.3073,3.3051,3.307,3.3063,3.304,3.3041,3.3092,3.3093,3.3059,3.3151,3.3107,3.3115,3.3148,3.3161,3.3171,3.317,3.3008,0,0,0,0,0,3.3011,3.304,3.3037,3.3088,3.3094,3.3083,3.3097,3.3083,3.3092,3.3096,3.3095,3.3105,3.3129,3.3145,3.3167,3.3229,3.3229,3.3259,3.327,3.3278,3.3285,3.3319,3.3332,3.319,3.319,3.319,0,0,3.305,3.3053,3.3073,3.3099,3.3105,3.3135,3.3087,3.312,3.3142,3.3101,3.3145,3.3145,3.3154,3.3209,3.3233,3.3211,3.3325,3.3286,3.3293,3.3295,3.3326,3.334,3.3352,3.3194,3.3194,3.3193,0,0,3.3137,3.3142,3.3186,3.3193,3.3204,3.3196,3.3207,3.3211,3.321,3.3254,3.3224,3.325,3.3292,3.33,3.3309,3.3402,3.3377,3.341,3.3464,3.3497,3.3508,3.3518,3.3551,3.3563,3.3417,3.3417,3.3417,0,3.3184,3.3228,3.321,3.3246,3.3259,3.3225,3.3268,3.3277,3.3294,3.3303,3.3279,3.3332,3.3336,3.3392,3.3415,3.3424,3.3435,3.3408,3.3508,3.3518,3.3527,3.3558,3.357,3.3421,3.342,3.342,3.342,0,3.3286,3.3318,3.3351,3.337,3.3386,3.3426,3.3414,3.3433,3.3418,3.3413,3.3459,3.3463,3.3485,3.3498,3.3483,3.3553,3.3539,3.3512,3.3468,3.3544,3.3573,3.3585,3.3426,3.3425,3.3424,3.3423,0,0,3.3406,3.3416,3.3428,3.3437,3.3447,3.3471,3.351,3.3533,3.3549,3.3563,3.3594,3.3632,3.3608,3.3619,3.3605,3.3634,3.3707,3.3603,3.3603,3.3622,3.3785,3.3804,3.3819,3.3691,3.3693,3.3695,3.3784,0,3.3492,3.3558,3.3544,3.361,3.3639,3.3608,3.3641,3.3651,3.3648,3.3672,3.3669,3.3696,3.3661,3.3668,3.3695,3.3692,3.3739,3.3686,3.372,3.3721,3.3718,3.3834,3.3854,3.3938,3.3795,3.3797,3.3798,0,3.36,3.3619,3.3688,3.3694,3.3706,3.3737,3.3757,3.3781,3.3792,3.3787,3.3801,3.3782,3.382,3.3777,3.3829,3.3793,3.3807,3.3808,3.381,3.3812,3.3764,3.3838,3.3964,3.3976,3.3816,3.3814,3.3813,0,3.368,3.3723,3.377,3.3778,3.3787,3.381,3.3815,3.3823,3.3838,3.3856,3.3866,3.3888,3.39,3.3918,3.3905,3.3875,3.396,3.3915,3.3957,3.3957,3.3975,3.3974,3.4104,3.3985,3.3985,3.3985,3.3985,0,3.3777,3.382,3.3807,3.3835,3.3883,3.3867,3.3914,3.3915,3.3924,3.3952,3.3926,3.3953,3.3935,3.3961,3.3952,3.3997,3.4002,3.4,3.3996,3.4002,3.4002,3.4009,3.4003,3.3988,3.3987,3.3987,3.3986,0,3.3874,3.3867,3.3916,3.3922,3.3924,3.3959,3.3963,3.399,3.3986,3.4022,3.403,3.4024,3.4053,3.4042,3.4073,3.4066,3.4124,3.4113,3.412,3.4117,3.416,3.4156,3.4298,3.4316,3.4187,3.4188,3.4189,0,3.3936,3.3968,3.3978,3.3996,3.4003,3.4031,3.4047,3.4033,3.405,3.4067,3.4091,3.4119,3.4139,3.4187,3.4185,3.4208,3.4198,3.4247,3.4201,3.4206,3.4198,3.4196,3.4199,3.4255,3.4257,3.4258,3.4259,0,3.4046,3.4041,3.4065,3.4089,3.4109,3.4127,3.4142,3.4158,3.4145,3.4166,3.4196,3.4212,3.4244,3.4271,3.4293,3.4297,3.4276,3.4274,3.4284,3.4289,3.4292,3.4291,3.4144,3.427,3.4269,3.4268,3.4267,3.4267,3.4127,3.4155,3.4167,3.4195,3.4205,3.4221,3.4246,3.4247,3.4272,3.4297,3.4287,3.4322,3.4333,3.436,3.4368,3.4394,3.4375,3.4391,3.4395,3.4399,3.4404,3.4289,3.4398,3.4398,3.4398,3.4397,3.4397,0,3.4235,3.4242,3.4268,3.4291,3.4314,3.4293,3.431,3.433,3.4361,3.4373,3.4395,3.443,3.4456,3.4457,3.4482,3.4503,3.4494,3.451,3.4508,3.451,3.442,3.4408,3.4517,3.4517,3.4517,3.4517,3.4517,3.4517,3.4294,3.4341,3.4338,3.439,3.4396,3.443,3.4441,3.4456,3.4466,3.4506,3.4529,3.453,3.4537,3.4563,3.4587,3.4586,3.4596,3.4616,3.4612,3.4528,3.4516,3.4504,3.4493,3.4619,3.4619,3.4699,3.47,3.4701]}]]